When you browse on this site, cookies collect data to enhance your experience and personalize the content and advertising you see.
Visit our Privacy Policy to learn more. By continuing to use the site, you agree to this use of cookies and data.
  • In Deutschland
  • Länderverzeichnis
  • Für 7 Tage
  • Wassertemperatur
  • Satellitenkarten
  • Wetterkarte
  • Widgets
  • user-avatar
    Anmelden

    Stündliche Wetter Mykhlya

    Heute, 21 Februar, Donnerstag

    Zeit Temperatur Niederschläge Wind Luftdruck Luftfeuchtigkeit
    00:00 +1°C° 0 mm 6 m/S 740 mmHg 77%
    01:00 +1°C° 0 mm 6 m/S 741 mmHg 78%
    02:00 -1°C° 0 mm 6 m/S 741 mmHg 80%
    03:00 -2°C° 0 mm 6 m/S 741 mmHg 81%
    04:00 -2°C° 0 mm 6 m/S 741 mmHg 82%
    05:00 -3°C° 0 mm 6 m/S 742 mmHg 83%
    06:00 -3°C° 0 mm 6 m/S 742 mmHg 81%
    07:00 -3°C° 0 mm 6 m/S 742 mmHg 80%
    08:00 -3°C° 0 mm 6 m/S 742 mmHg 78%
    09:00 -2°C° 0 mm 6 m/S 743 mmHg 71%
    10:00 -1°C° 0 mm 7 m/S 743 mmHg 65%
    11:00 0°C° 0 mm 7 m/S 743 mmHg 58%
    12:00 0°C° 0 mm 7 m/S 743 mmHg 59%
    13:00 +2°C° 0 mm 7 m/S 743 mmHg 60%
    14:00 +2°C° 0 mm 6 m/S 743 mmHg 61%
    15:00 +2°C° 0 mm 6 m/S 743 mmHg 65%
    16:00 +2°C° 0 mm 5 m/S 742 mmHg 69%
    17:00 +1°C° 0 mm 4 m/S 742 mmHg 72%
    18:00 +2°C° 0.2 mm 3 m/S 742 mmHg 78%
    19:00 +2°C° 0.2 mm 3 m/S 742 mmHg 84%
    20:00 +2°C° 0.2 mm 2 m/S 742 mmHg 90%
    21:00 +2°C° 0.4 mm 2 m/S 742 mmHg 89%
    22:00 +2°C° 0.4 mm 2 m/S 742 mmHg 87%
    23:00 +1°C° 0.4 mm 2 m/S 742 mmHg 86%

    Morgen, 22 Februar, Freitag

    Zeit Temperatur Niederschläge Wind Luftdruck Luftfeuchtigkeit
    00:00 -1°C° 0.7 mm 3 m/S 742 mmHg 88%
    01:00 -2°C° 0.7 mm 3 m/S 742 mmHg 91%
    02:00 -4°C° 0.7 mm 4 m/S 741 mmHg 93%
    03:00 -4°C° 0.8 mm 4 m/S 741 mmHg 93%
    04:00 -5°C° 0.8 mm 4 m/S 741 mmHg 92%
    05:00 -5°C° 0.8 mm 4 m/S 741 mmHg 92%
    06:00 -5°C° 0.5 mm 4 m/S 741 mmHg 90%
    07:00 -7°C° 0.5 mm 5 m/S 742 mmHg 89%
    08:00 -7°C° 0.5 mm 5 m/S 743 mmHg 87%
    09:00 -7°C° 0.1 mm 5 m/S 744 mmHg 81%
    10:00 -8°C° 0.1 mm 6 m/S 745 mmHg 74%
    11:00 -6°C° 0.1 mm 6 m/S 746 mmHg 68%
    12:00 -8°C° 0 mm 6 m/S 746 mmHg 66%
    13:00 -8°C° 0 mm 6 m/S 747 mmHg 63%
    14:00 -8°C° 0 mm 6 m/S 747 mmHg 61%
    15:00 -7°C° 0 mm 5 m/S 748 mmHg 62%
    16:00 -8°C° 0 mm 5 m/S 748 mmHg 63%
    17:00 -8°C° 0 mm 5 m/S 748 mmHg 64%
    18:00 -10°C° 0 mm 5 m/S 749 mmHg 66%
    19:00 -11°C° 0 mm 5 m/S 750 mmHg 68%
    20:00 -10°C° 0 mm 4 m/S 750 mmHg 70%
    21:00 -10°C° 0 mm 4 m/S 750 mmHg 71%
    22:00 -10°C° 0 mm 4 m/S 751 mmHg 72%
    23:00 -11°C° 0 mm 4 m/S 751 mmHg 73%

    übermorgen, 23 Februar, Samstag

    Zeit Temperatur Niederschläge Wind Luftdruck Luftfeuchtigkeit
    00:00 -11°C° 0 mm 4 m/S 752 mmHg 73%
    01:00 -11°C° 0 mm 4 m/S 752 mmHg 72%
    02:00 -11°C° 0 mm 4 m/S 752 mmHg 72%
    03:00 -11°C° 0 mm 4 m/S 752 mmHg 73%
    04:00 -11°C° 0 mm 4 m/S 753 mmHg 74%
    05:00 -11°C° 0 mm 4 m/S 753 mmHg 75%
    06:00 -11°C° 0 mm 4 m/S 753 mmHg 75%
    07:00 -11°C° 0 mm 4 m/S 754 mmHg 75%
    08:00 -11°C° 0 mm 4 m/S 754 mmHg 75%
    09:00 -11°C° 0 mm 5 m/S 755 mmHg 72%
    10:00 -11°C° 0 mm 5 m/S 755 mmHg 69%
    11:00 -10°C° 0 mm 5 m/S 755 mmHg 66%
    12:00 -10°C° 0 mm 5 m/S 755 mmHg 66%
    13:00 -8°C° 0 mm 5 m/S 755 mmHg 65%
    14:00 -8°C° 0 mm 5 m/S 755 mmHg 65%
    15:00 -8°C° 0 mm 5 m/S 755 mmHg 66%
    16:00 -8°C° 0 mm 4 m/S 755 mmHg 68%
    17:00 -8°C° 0 mm 3 m/S 755 mmHg 69%
    18:00 -8°C° 0 mm 3 m/S 755 mmHg 71%
    19:00 -9°C° 0 mm 3 m/S 755 mmHg 73%
    20:00 -9°C° 0 mm 3 m/S 755 mmHg 74%
    21:00 -9°C° 0 mm 3 m/S 755 mmHg 74%
    22:00 -9°C° 0 mm 3 m/S 755 mmHg 74%
    23:00 -9°C° 0 mm 3 m/S 755 mmHg 74%

    24 Februar, Sonntag

    Zeit Temperatur Niederschläge Wind Luftdruck Luftfeuchtigkeit
    00:00 -9°C° 0 mm 2 m/S 755 mmHg 76%
    01:00 -9°C° 0 mm 2 m/S 755 mmHg 77%
    02:00 -9°C° 0 mm 2 m/S 755 mmHg 78%
    03:00 -9°C° 0 mm 2 m/S 754 mmHg 79%
    04:00 -9°C° 0 mm 2 m/S 754 mmHg 79%
    05:00 -10°C° 0 mm 2 m/S 754 mmHg 80%
    06:00 -9°C° 0 mm 2 m/S 754 mmHg 77%
    07:00 -8°C° 0 mm 2 m/S 754 mmHg 75%
    08:00 -8°C° 0 mm 2 m/S 754 mmHg 73%
    09:00 -8°C° 0 mm 3 m/S 754 mmHg 69%
    10:00 -7°C° 0 mm 3 m/S 754 mmHg 64%
    11:00 -5°C° 0 mm 3 m/S 754 mmHg 59%
    12:00 -5°C° 0 mm 3 m/S 753 mmHg 62%
    13:00 -5°C° 0 mm 3 m/S 753 mmHg 64%
    14:00 -5°C° 0 mm 4 m/S 752 mmHg 67%
    15:00 -5°C° 0 mm 4 m/S 752 mmHg 70%
    16:00 -5°C° 0 mm 4 m/S 751 mmHg 73%
    17:00 -5°C° 0 mm 3 m/S 751 mmHg 76%
    18:00 -5°C° 0 mm 3 m/S 751 mmHg 75%
    19:00 -5°C° 0 mm 3 m/S 750 mmHg 74%
    20:00 -5°C° 0 mm 3 m/S 750 mmHg 74%
    21:00 -4°C° 0 mm 2 m/S 750 mmHg 74%
    22:00 -4°C° 0 mm 2 m/S 749 mmHg 74%
    23:00 -4°C° 0 mm 2 m/S 749 mmHg 75%

    25 Februar, Montag

    Zeit Temperatur Niederschläge Wind Luftdruck Luftfeuchtigkeit
    00:00 -4°C° 0 mm 2 m/S 748 mmHg 76%
    01:00 -5°C° 0 mm 2 m/S 748 mmHg 78%
    02:00 -5°C° 0 mm 2 m/S 747 mmHg 80%
    03:00 -5°C° 0 mm 2 m/S 747 mmHg 82%
    04:00 -4°C° 0 mm 2 m/S 746 mmHg 83%
    05:00 -4°C° 0 mm 2 m/S 746 mmHg 84%
    06:00 -4°C° 0.2 mm 2 m/S 746 mmHg 88%
    07:00 -3°C° 0.2 mm 2 m/S 745 mmHg 91%
    08:00 -4°C° 0.2 mm 3 m/S 745 mmHg 95%
    09:00 -2°C° 0.4 mm 3 m/S 745 mmHg 94%
    10:00 -3°C° 0.4 mm 4 m/S 745 mmHg 94%
    11:00 -2°C° 0.4 mm 4 m/S 745 mmHg 93%
    12:00 -2°C° 0.1 mm 5 m/S 745 mmHg 93%
    13:00 -2°C° 0.1 mm 6 m/S 745 mmHg 92%
    14:00 -1°C° 0.1 mm 7 m/S 745 mmHg 91%
    15:00 -2°C° 0 mm 7 m/S 745 mmHg 88%
    16:00 -2°C° 0 mm 7 m/S 745 mmHg 86%
    17:00 -2°C° 0 mm 6 m/S 745 mmHg 83%
    18:00 -2°C° 0 mm 6 m/S 746 mmHg 82%
    19:00 -3°C° 0 mm 6 m/S 746 mmHg 82%
    20:00 -2°C° 0 mm 5 m/S 747 mmHg 81%
    21:00 -4°C° 0 mm 5 m/S 747 mmHg 82%
    22:00 -4°C° 0 mm 5 m/S 747 mmHg 82%
    23:00 -4°C° 0 mm 5 m/S 747 mmHg 83%

    26 Februar, Dienstag

    Zeit Temperatur Niederschläge Wind Luftdruck Luftfeuchtigkeit
    00:00 -4°C° 0 mm 5 m/S 747 mmHg 85%
    01:00 -4°C° 0 mm 5 m/S 746 mmHg 87%
    02:00 -4°C° 0 mm 5 m/S 746 mmHg 88%
    03:00 -4°C° 0 mm 5 m/S 746 mmHg 89%
    04:00 -5°C° 0 mm 5 m/S 745 mmHg 90%
    05:00 -5°C° 0 mm 5 m/S 744 mmHg 91%
    06:00 -5°C° 0 mm 5 m/S 744 mmHg 90%
    07:00 -5°C° 0 mm 5 m/S 744 mmHg 90%
    08:00 -5°C° 0 mm 5 m/S 743 mmHg 89%
    09:00 -4°C° 0 mm 5 m/S 743 mmHg 88%
    10:00 -2°C° 0 mm 5 m/S 743 mmHg 87%
    11:00 -2°C° 0 mm 5 m/S 742 mmHg 86%
    12:00 -1°C° 0 mm 5 m/S 742 mmHg 86%
    13:00 -1°C° 0 mm 5 m/S 741 mmHg 86%
    14:00 -1°C° 0 mm 6 m/S 741 mmHg 85%
    15:00 -2°C° 0 mm 6 m/S 740 mmHg 86%
    16:00 -2°C° 0 mm 6 m/S 740 mmHg 86%
    17:00 -2°C° 0 mm 6 m/S 739 mmHg 86%
    18:00 -2°C° 0 mm 6 m/S 739 mmHg 87%
    19:00 -2°C° 0 mm 6 m/S 738 mmHg 89%
    20:00 -2°C° 0 mm 7 m/S 737 mmHg 90%
    21:00 -1°C° 0.1 mm 7 m/S 737 mmHg 90%
    22:00 -1°C° 0.1 mm 7 m/S 736 mmHg 91%
    23:00 -1°C° 0.1 mm 8 m/S 735 mmHg 91%
    Mehr zeigen